Time,TemperatureF,DewpointF,PressureIn,WindDirection,WindDirectionDegrees,WindSpeedMPH,WindSpeedGustMPH,Humidity,HourlyPrecipIn,Conditions,Clouds,dailyrainin,SoftwareType,DateUTC
2013-08-04 00:01:00,59.6,51.6,30.19,ENE,68,0.0,0.0,75,0.00,CLR,,0.00,WeatherDisplay:10.37,2013-08-04 05:01:00,
2013-08-04 00:06:00,59.4,51.4,30.20,ENE,68,0.0,0.0,75,0.00,CLR,,0.00,WeatherDisplay:10.37,2013-08-04 05:06:00,
2013-08-04 00:11:00,59.2,51.2,30.20,ENE,68,0.0,0.0,75,0.00,CLR,,0.00,WeatherDisplay:10.37,2013-08-04 05:11:00,
2013-08-04 00:16:00,58.8,51.3,30.20,ENE,68,0.0,0.0,76,0.00,CLR,,0.00,WeatherDisplay:10.37,2013-08-04 05:16:00,
2013-08-04 00:21:00,58.6,51.4,30.20,ENE,68,0.0,0.0,77,0.00,CLR,,0.00,WeatherDisplay:10.37,2013-08-04 05:21:00,
2013-08-04 00:26:00,58.3,51.1,30.21,ENE,68,0.0,0.0,77,0.00,CLR,,0.00,WeatherDisplay:10.37,2013-08-04 05:26:00,
2013-08-04 00:31:00,58.0,51.1,30.21,ENE,68,0.0,0.0,78,0.00,CLR,,0.00,WeatherDisplay:10.37,2013-08-04 05:31:00,
2013-08-04 00:36:00,57.7,50.9,30.22,ENE,68,0.0,0.0,78,0.00,CLR,,0.00,WeatherDisplay:10.37,2013-08-04 05:36:00,
2013-08-04 00:41:00,57.6,51.1,30.22,ENE,68,0.0,0.0,79,0.00,CLR,,0.00,WeatherDisplay:10.37,2013-08-04 05:41:00,
2013-08-04 00:46:00,57.4,50.9,30.22,ENE,68,0.0,0.0,79,0.00,CLR,,0.00,WeatherDisplay:10.37,2013-08-04 05:46:00,
2013-08-04 00:51:00,57.2,50.7,30.22,ENE,68,0.0,0.0,79,0.00,CLR,,0.00,WeatherDisplay:10.37,2013-08-04 05:51:00,
2013-08-04 00:56:00,57.0,50.9,30.22,ENE,68,0.0,0.0,80,0.00,CLR,,0.00,WeatherDisplay:10.37,2013-08-04 05:56:00,
2013-08-04 01:02:00,57.0,50.9,30.22,ENE,68,0.0,0.0,80,0.00,CLR,,0.00,WeatherDisplay:10.37,2013-08-04 06:02:00,
2013-08-04 01:12:00,57.0,50.9,30.22,ENE,68,0.0,0.0,80,0.00,CLR,,0.00,WeatherDisplay:10.37,2013-08-04 06:12:00,
2013-08-04 01:16:00,56.8,51.1,30.22,ENE,68,0.0,0.0,81,0.00,CLR,,0.00,WeatherDisplay:10.37,2013-08-04 06:16:00,
2013-08-04 01:22:00,56.8,51.1,30.22,ENE,68,0.0,0.0,81,0.00,CLR,,0.00,WeatherDisplay:10.37,2013-08-04 06:22:00,
2013-08-04 01:32:00,56.5,50.7,30.22,ENE,68,0.0,0.0,81,0.00,CLR,,0.00,WeatherDisplay:10.37,2013-08-04 06:32:00,
2013-08-04 01:36:00,56.3,50.5,30.21,ENE,68,0.0,0.0,81,0.00,CLR,,0.00,WeatherDisplay:10.37,2013-08-04 06:36:00,
2013-08-04 01:42:00,56.1,50.7,30.21,ENE,68,0.0,0.0,82,0.00,CLR,,0.00,WeatherDisplay:10.37,2013-08-04 06:42:00,
2013-08-04 01:52:00,55.9,50.5,30.20,ENE,68,0.0,0.0,82,0.00,CLR,,0.00,WeatherDisplay:10.37,2013-08-04 06:52:00,
2013-08-04 02:01:00,55.8,50.3,30.20,ENE,68,0.0,0.0,82,0.00,CLR,,0.00,WeatherDisplay:10.37,2013-08-04 07:01:00,
2013-08-04 02:07:00,55.8,50.3,30.20,ENE,68,0.0,0.0,82,0.00,CLR,,0.00,WeatherDisplay:10.37,2013-08-04 07:07:00,
2013-08-04 02:12:00,55.7,50.3,30.20,ENE,68,0.0,0.0,82,0.00,CLR,,0.00,WeatherDisplay:10.37,2013-08-04 07:12:00,
2013-08-04 02:17:00,55.2,49.8,30.20,ENE,68,0.0,0.0,82,0.00,CLR,,0.00,WeatherDisplay:10.37,2013-08-04 07:17:00,
2013-08-04 02:22:00,55.2,49.8,30.19,ENE,68,0.0,0.0,82,0.00,CLR,,0.00,WeatherDisplay:10.37,2013-08-04 07:22:00,
2013-08-04 02:27:00,55.2,49.8,30.19,ENE,68,0.0,0.0,82,0.00,CLR,,0.00,WeatherDisplay:10.37,2013-08-04 07:27:00,
2013-08-04 02:31:00,55.2,49.8,30.18,ENE,68,0.0,0.0,82,0.00,CLR,,0.00,WeatherDisplay:10.37,2013-08-04 07:31:00,
2013-08-04 02:37:00,55.6,50.2,30.18,ENE,62,0.0,0.0,82,0.00,CLR,,0.00,WeatherDisplay:10.37,2013-08-04 07:37:00,
2013-08-04 02:42:00,55.6,50.2,30.18,ENE,58,0.0,0.0,82,0.00,CLR,,0.00,WeatherDisplay:10.37,2013-08-04 07:42:00,
2013-08-04 02:47:00,55.8,50.0,30.18,ENE,64,0.0,0.0,81,0.00,CLR,,0.00,WeatherDisplay:10.37,2013-08-04 07:47:00,
2013-08-04 02:57:00,55.9,50.2,30.18,ENE,68,0.0,0.0,81,0.00,CLR,,0.00,WeatherDisplay:10.37,2013-08-04 07:57:00,
2013-08-04 03:07:00,55.8,50.0,30.17,ENE,68,0.0,0.0,81,0.00,CLR,,0.00,WeatherDisplay:10.37,2013-08-04 08:07:00,
2013-08-04 03:17:00,55.8,49.7,30.17,NE,54,0.0,0.0,80,0.00,CLR,,0.00,WeatherDisplay:10.37,2013-08-04 08:17:00,
2013-08-04 03:22:00,55.6,49.5,30.17,NE,45,0.0,0.0,80,0.00,CLR,,0.00,WeatherDisplay:10.37,2013-08-04 08:22:00,
2013-08-04 03:32:00,55.2,49.2,30.17,ENE,59,0.0,0.0,80,0.00,CLR,,0.00,WeatherDisplay:10.37,2013-08-04 08:32:00,
2013-08-04 03:37:00,55.2,49.2,30.17,NE,47,0.0,0.0,80,0.00,CLR,,0.00,WeatherDisplay:10.37,2013-08-04 08:37:00,
2013-08-04 03:42:00,55.2,49.1,30.17,NE,45,0.0,0.0,80,0.00,CLR,,0.00,WeatherDisplay:10.37,2013-08-04 08:42:00,
2013-08-04 03:46:00,54.7,48.6,30.16,NE,45,0.0,0.0,80,0.00,CLR,,0.00,WeatherDisplay:10.37,2013-08-04 08:46:00,
2013-08-04 03:51:00,54.5,48.5,30.16,NE,45,0.0,0.0,80,0.00,CLR,,0.00,WeatherDisplay:10.37,2013-08-04 08:51:00,
2013-08-04 03:57:00,54.3,48.3,30.17,NE,45,0.0,0.0,80,0.00,CLR,,0.00,WeatherDisplay:10.37,2013-08-04 08:57:00,
2013-08-04 04:06:00,54.1,48.1,30.17,NE,45,0.0,0.0,80,0.00,CLR,,0.00,WeatherDisplay:10.37,2013-08-04 09:06:00,
2013-08-04 04:12:00,54.1,48.1,30.17,NE,45,0.0,0.0,80,0.00,CLR,,0.00,WeatherDisplay:10.37,2013-08-04 09:12:00,
2013-08-04 04:16:00,53.8,47.8,30.17,NE,45,0.0,0.0,80,0.00,CLR,,0.00,WeatherDisplay:10.37,2013-08-04 09:16:00,
2013-08-04 04:22:00,53.8,47.8,30.17,NE,45,0.0,0.0,80,0.00,CLR,,0.00,WeatherDisplay:10.37,2013-08-04 09:22:00,
2013-08-04 04:32:00,53.4,47.7,30.16,NE,45,0.0,0.0,81,0.00,CLR,,0.00,WeatherDisplay:10.37,2013-08-04 09:32:00,
2013-08-04 04:37:00,53.4,47.7,30.15,NE,45,0.0,0.0,81,0.00,CLR,,0.00,WeatherDisplay:10.37,2013-08-04 09:37:00,
2013-08-04 04:42:00,53.4,47.7,30.15,NE,45,0.0,0.0,81,0.00,CLR,,0.00,WeatherDisplay:10.37,2013-08-04 09:42:00,
2013-08-04 04:47:00,53.8,47.8,30.14,NE,45,0.0,0.0,80,0.00,CLR,,0.00,WeatherDisplay:10.37,2013-08-04 09:47:00,
2013-08-04 04:57:00,53.8,47.8,30.15,NE,45,0.0,0.0,80,0.00,CLR,,0.00,WeatherDisplay:10.37,2013-08-04 09:57:00,
2013-08-04 05:02:00,53.8,47.8,30.15,NE,45,0.0,0.0,80,0.00,CLR,,0.00,WeatherDisplay:10.37,2013-08-04 10:02:00,
2013-08-04 05:06:00,53.8,47.8,30.15,NE,45,0.0,0.0,80,0.00,CLR,,0.00,WeatherDisplay:10.37,2013-08-04 10:06:00,
2013-08-04 05:12:00,53.8,47.8,30.15,NE,45,0.0,1.0,80,0.00,CLR,,0.00,WeatherDisplay:10.37,2013-08-04 10:12:00,
2013-08-04 05:17:00,53.8,47.4,30.16,NE,45,0.0,1.0,79,0.00,CLR,,0.00,WeatherDisplay:10.37,2013-08-04 10:17:00,
2013-08-04 05:22:00,53.4,47.4,30.17,NE,45,0.0,0.0,80,0.00,CLR,,0.00,WeatherDisplay:10.37,2013-08-04 10:22:00,
2013-08-04 05:32:00,53.4,47.4,30.16,NE,35,0.0,0.0,80,0.00,CLR,,0.00,WeatherDisplay:10.37,2013-08-04 10:32:00,
2013-08-04 05:37:00,53.4,47.4,30.17,NNE,24,0.0,0.0,80,0.00,CLR,,0.00,WeatherDisplay:10.37,2013-08-04 10:37:00,
2013-08-04 05:42:00,53.4,47.4,30.17,NNE,22,0.0,0.0,80,0.00,CLR,,0.00,WeatherDisplay:10.37,2013-08-04 10:42:00,
2013-08-04 05:47:00,53.2,47.2,30.17,NNE,22,0.0,0.0,80,0.00,CLR,,0.00,WeatherDisplay:10.37,2013-08-04 10:47:00,
2013-08-04 05:51:00,53.4,47.4,30.17,NNE,22,0.0,0.0,80,0.00,CLR,,0.00,WeatherDisplay:10.37,2013-08-04 10:51:00,
2013-08-04 06:01:00,53.4,47.4,30.17,NNE,22,0.0,0.0,80,0.00,CLR,,0.00,WeatherDisplay:10.37,2013-08-04 11:01:00,
2013-08-04 06:11:00,53.6,47.5,30.17,ENE,58,0.0,0.0,80,0.00,CLR,,0.00,WeatherDisplay:10.37,2013-08-04 11:11:00,
2013-08-04 06:17:00,53.8,47.8,30.18,ENE,68,0.0,0.0,80,0.00,CLR,,0.00,WeatherDisplay:10.37,2013-08-04 11:17:00,
2013-08-04 06:27:00,54.3,47.9,30.19,ENE,68,0.0,0.0,79,0.00,CLR,,0.00,WeatherDisplay:10.37,2013-08-04 11:27:00,
2013-08-04 06:32:00,54.5,48.1,30.18,ENE,68,0.0,0.0,79,0.00,CLR,,0.00,WeatherDisplay:10.37,2013-08-04 11:32:00,
2013-08-04 06:37:00,54.5,48.1,30.19,ENE,68,0.0,0.0,79,0.00,CLR,,0.00,WeatherDisplay:10.37,2013-08-04 11:37:00,
2013-08-04 06:42:00,54.7,48.3,30.19,ENE,68,0.0,0.0,79,0.00,CLR,,0.00,WeatherDisplay:10.37,2013-08-04 11:42:00,
2013-08-04 06:47:00,54.7,48.3,30.18,ENE,68,0.0,0.0,79,0.00,CLR,,0.00,WeatherDisplay:10.37,2013-08-04 11:47:00,
2013-08-04 06:51:00,54.9,48.5,30.19,ENE,68,0.0,0.0,79,0.00,CLR,,0.00,WeatherDisplay:10.37,2013-08-04 11:51:00,
2013-08-04 06:57:00,54.9,48.5,30.20,ENE,77,0.0,0.0,79,0.00,CLR,,0.00,WeatherDisplay:10.37,2013-08-04 11:57:00,
2013-08-04 07:01:00,55.0,48.6,30.19,East,101,0.0,0.0,79,0.00,CLR,,0.00,WeatherDisplay:10.37,2013-08-04 12:01:00,
2013-08-04 07:06:00,55.0,48.6,30.20,ESE,112,0.0,0.0,79,0.00,CLR,,0.00,WeatherDisplay:10.37,2013-08-04 12:06:00,
2013-08-04 07:12:00,55.0,48.6,30.20,ESE,112,0.0,0.0,79,0.00,CLR,,0.00,WeatherDisplay:10.37,2013-08-04 12:12:00,
2013-08-04 07:17:00,55.0,48.6,30.20,ESE,112,0.0,0.0,79,0.00,CLR,,0.00,WeatherDisplay:10.37,2013-08-04 12:17:00,
2013-08-04 07:27:00,55.2,49.2,30.21,ESE,113,0.0,0.0,80,0.00,CLR,,0.00,WeatherDisplay:10.37,2013-08-04 12:27:00,
2013-08-04 07:32:00,55.2,49.5,30.22,SSE,158,0.0,0.0,81,0.00,CLR,,0.00,WeatherDisplay:10.37,2013-08-04 12:32:00,
2013-08-04 07:42:00,55.0,49.3,30.22,SSW,202,0.0,0.0,81,0.00,CLR,,0.00,WeatherDisplay:10.37,2013-08-04 12:42:00,
2013-08-04 07:47:00,55.0,49.6,30.21,SSW,202,0.0,0.0,82,0.00,CLR,,0.00,WeatherDisplay:10.37,2013-08-04 12:47:00,
2013-08-04 07:52:00,55.0,49.6,30.19,South,184,0.0,0.0,82,0.00,CLR,,0.00,WeatherDisplay:10.37,2013-08-04 12:52:00,
2013-08-04 07:56:00,55.2,49.8,30.16,East,90,3.0,4.0,82,0.00,CLR,,0.00,WeatherDisplay:10.37,2013-08-04 12:56:00,
2013-08-04 08:02:00,55.2,49.5,30.17,ENE,59,0.0,0.0,81,0.00,CLR,,0.00,WeatherDisplay:10.37,2013-08-04 13:02:00,
2013-08-04 08:12:00,55.2,49.8,30.18,ENE,62,0.0,0.0,82,0.00,CLR,,0.00,WeatherDisplay:10.37,2013-08-04 13:12:00,
2013-08-04 08:16:00,55.1,49.7,30.17,ENE,68,0.0,0.0,82,0.00,CLR,,0.00,WeatherDisplay:10.37,2013-08-04 13:16:00,
2013-08-04 08:21:00,55.0,50.0,30.16,East,84,0.0,0.0,83,0.00,CLR,,0.00,WeatherDisplay:10.37,2013-08-04 13:21:00,
2013-08-04 08:32:00,55.0,50.0,30.16,ENE,62,0.0,0.0,83,0.00,CLR,,0.00,WeatherDisplay:10.37,2013-08-04 13:32:00,
2013-08-04 08:37:00,55.2,50.1,30.15,ENE,59,0.0,0.0,83,0.00,CLR,,0.00,WeatherDisplay:10.37,2013-08-04 13:37:00,
2013-08-04 08:42:00,55.4,50.0,30.15,East,81,0.0,0.0,82,0.00,CLR,,0.00,WeatherDisplay:10.37,2013-08-04 13:42:00,
2013-08-04 08:47:00,55.9,50.5,30.14,East,90,0.0,0.0,82,0.00,CLR,,0.00,WeatherDisplay:10.37,2013-08-04 13:47:00,
2013-08-04 08:52:00,55.9,50.5,30.12,East,90,0.0,0.0,82,0.00,CLR,,0.00,WeatherDisplay:10.37,2013-08-04 13:52:00,
2013-08-04 09:02:00,56.5,51.1,30.12,East,100,1.0,3.0,82,0.00,CLR,,0.00,WeatherDisplay:10.37,2013-08-04 14:02:00,
2013-08-04 09:06:00,57.0,51.2,30.12,SE,128,0.0,9.0,81,0.00,CLR,,0.00,WeatherDisplay:10.37,2013-08-04 14:06:00,
2013-08-04 09:12:00,57.4,51.3,30.12,SE,128,9.0,9.0,80,0.00,CLR,,0.00,WeatherDisplay:10.37,2013-08-04 14:12:00,
2013-08-04 09:17:00,57.6,51.4,30.13,ESE,114,5.0,5.0,80,0.00,CLR,,0.00,WeatherDisplay:10.37,2013-08-04 14:17:00,
2013-08-04 09:22:00,57.9,51.8,30.13,SE,126,0.0,4.0,80,0.00,CLR,,0.00,WeatherDisplay:10.37,2013-08-04 14:22:00,
2013-08-04 09:27:00,58.1,51.6,30.14,SE,137,2.0,3.0,79,0.03,RA,,0.03,WeatherDisplay:10.37,2013-08-04 14:27:00,
2013-08-04 09:37:00,58.6,52.1,30.15,SE,145,0.0,4.0,79,0.00,CLR,,0.03,WeatherDisplay:10.37,2013-08-04 14:37:00,
2013-08-04 09:41:00,58.8,52.3,30.15,SSE,163,0.0,4.0,79,0.00,CLR,,0.03,WeatherDisplay:10.37,2013-08-04 14:41:00,
2013-08-04 09:47:00,59.0,52.1,30.14,SSE,162,0.0,4.0,78,0.00,CLR,,0.03,WeatherDisplay:10.37,2013-08-04 14:47:00,
2013-08-04 09:51:00,59.5,52.7,30.14,SSE,158,0.0,0.0,78,0.00,CLR,,0.03,WeatherDisplay:10.37,2013-08-04 14:51:00,
2013-08-04 09:57:00,61.1,53.8,30.15,SE,146,0.0,0.0,77,0.00,CLR,,0.03,WeatherDisplay:10.37,2013-08-04 14:57:00,
2013-08-04 10:02:00,61.3,53.0,30.15,SE,137,0.0,0.0,74,0.00,CLR,,0.03,WeatherDisplay:10.37,2013-08-04 15:02:00,
2013-08-04 10:07:00,61.3,53.0,30.15,SE,135,0.0,0.0,74,0.00,CLR,,0.03,WeatherDisplay:10.37,2013-08-04 15:07:00,
2013-08-04 10:12:00,61.7,53.7,30.15,SSE,153,0.0,0.0,75,0.00,CLR,,0.03,WeatherDisplay:10.37,2013-08-04 15:12:00,
2013-08-04 10:22:00,63.3,54.5,30.15,SSE,164,0.0,0.0,73,0.00,CLR,,0.03,WeatherDisplay:10.37,2013-08-04 15:22:00,
2013-08-04 10:27:00,65.2,55.2,30.16,South,175,0.0,0.0,70,0.00,CLR,,0.03,WeatherDisplay:10.37,2013-08-04 15:27:00,
2013-08-04 10:32:00,66.0,56.0,30.15,South,189,0.0,0.0,70,0.00,CLR,,0.03,WeatherDisplay:10.37,2013-08-04 15:32:00,
2013-08-04 10:37:00,65.8,55.0,30.15,SSW,213,0.0,0.0,68,0.00,CLR,,0.03,WeatherDisplay:10.37,2013-08-04 15:37:00,
2013-08-04 10:42:00,65.2,54.8,30.15,South,184,0.0,0.0,69,0.00,CLR,,0.03,WeatherDisplay:10.37,2013-08-04 15:42:00,
2013-08-04 10:51:00,65.1,54.3,30.14,ESE,113,0.0,0.0,68,0.00,CLR,,0.03,WeatherDisplay:10.37,2013-08-04 15:51:00,
2013-08-04 10:57:00,66.7,55.8,30.13,SE,125,0.0,0.0,68,0.00,CLR,,0.03,WeatherDisplay:10.37,2013-08-04 15:57:00,
2013-08-04 11:07:00,68.5,56.7,30.12,ESE,110,0.0,5.0,66,0.00,CLR,,0.03,WeatherDisplay:10.37,2013-08-04 16:07:00,
2013-08-04 11:12:00,68.5,56.3,30.12,East,99,0.0,2.0,65,0.00,CLR,,0.03,WeatherDisplay:10.37,2013-08-04 16:12:00,
2013-08-04 11:17:00,68.7,56.5,30.13,ESE,117,0.0,2.0,65,0.00,CLR,,0.03,WeatherDisplay:10.37,2013-08-04 16:17:00,
2013-08-04 11:22:00,69.1,56.4,30.12,ESE,110,0.0,0.0,64,0.00,CLR,,0.03,WeatherDisplay:10.37,2013-08-04 16:22:00,
2013-08-04 11:27:00,69.1,56.4,30.12,ESE,103,0.0,0.0,64,0.00,CLR,,0.03,WeatherDisplay:10.37,2013-08-04 16:27:00,
2013-08-04 11:32:00,69.4,56.7,30.12,East,98,0.0,0.0,64,0.00,CLR,,0.03,WeatherDisplay:10.37,2013-08-04 16:32:00,
2013-08-04 11:37:00,69.1,56.4,30.12,East,86,0.0,0.0,64,0.00,CLR,,0.03,WeatherDisplay:10.37,2013-08-04 16:37:00,
2013-08-04 11:47:00,69.4,56.3,30.13,ENE,68,0.0,0.0,63,0.00,CLR,,0.03,WeatherDisplay:10.37,2013-08-04 16:47:00,
2013-08-04 11:52:00,70.9,56.8,30.12,East,98,0.0,0.0,61,0.00,CLR,,0.03,WeatherDisplay:10.37,2013-08-04 16:52:00,
2013-08-04 11:56:00,71.4,57.3,30.12,ESE,113,0.0,0.0,61,0.00,CLR,,0.03,WeatherDisplay:10.37,2013-08-04 16:56:00,
2013-08-04 12:07:00,73.0,57.9,30.12,SE,133,0.0,0.0,59,0.00,CLR,,0.03,WeatherDisplay:10.37,2013-08-04 17:07:00,
2013-08-04 12:17:00,73.8,58.5,30.12,SSE,156,0.0,4.0,59,0.00,CLR,,0.03,WeatherDisplay:10.37,2013-08-04 17:17:00,
2013-08-04 12:21:00,73.9,57.3,30.13,SE,141,0.0,0.0,56,0.00,CLR,,0.03,WeatherDisplay:10.37,2013-08-04 17:21:00,
2013-08-04 12:27:00,73.3,56.6,30.12,SE,133,0.0,4.0,56,0.00,CLR,,0.03,WeatherDisplay:10.37,2013-08-04 17:27:00,
2013-08-04 12:32:00,73.6,57.4,30.12,SSE,148,0.0,0.0,57,0.00,CLR,,0.03,WeatherDisplay:10.37,2013-08-04 17:32:00,
2013-08-04 12:37:00,73.9,57.7,30.12,SSE,147,0.0,0.0,57,0.00,CLR,,0.03,WeatherDisplay:10.37,2013-08-04 17:37:00,
2013-08-04 12:47:00,74.8,58.6,30.12,SSE,159,2.0,3.0,57,0.00,CLR,,0.03,WeatherDisplay:10.37,2013-08-04 17:47:00,
2013-08-04 12:52:00,74.8,58.1,30.12,South,184,6.0,6.0,56,0.00,CLR,,0.03,WeatherDisplay:10.37,2013-08-04 17:52:00,
2013-08-04 12:57:00,75.0,58.3,30.12,South,174,3.0,6.0,56,0.00,CLR,,0.03,WeatherDisplay:10.37,2013-08-04 17:57:00,
2013-08-04 13:01:00,75.0,58.3,30.11,SE,142,1.0,4.0,56,0.00,CLR,,0.03,WeatherDisplay:10.37,2013-08-04 18:01:00,
2013-08-04 13:07:00,75.2,58.4,30.11,SE,125,0.0,0.0,56,0.00,CLR,,0.03,WeatherDisplay:10.37,2013-08-04 18:07:00,
2013-08-04 13:12:00,75.3,58.0,30.11,SE,137,3.0,7.0,55,0.00,CLR,,0.03,WeatherDisplay:10.37,2013-08-04 18:12:00,
2013-08-04 13:16:00,75.6,58.8,30.11,South,176,1.0,7.0,56,0.00,CLR,,0.03,WeatherDisplay:10.37,2013-08-04 18:16:00,
2013-08-04 13:21:00,75.4,57.6,30.10,South,184,0.0,2.0,54,0.00,CLR,,0.03,WeatherDisplay:10.37,2013-08-04 18:21:00,
2013-08-04 13:27:00,75.5,58.7,30.10,SSE,151,6.0,6.0,56,0.00,CLR,,0.03,WeatherDisplay:10.37,2013-08-04 18:27:00,
2013-08-04 13:37:00,76.1,59.8,30.10,SSE,157,0.0,0.0,57,0.00,CLR,,0.03,WeatherDisplay:10.37,2013-08-04 18:37:00,
2013-08-04 13:42:00,75.6,58.3,30.10,ESE,107,8.0,8.0,55,0.00,CLR,,0.03,WeatherDisplay:10.37,2013-08-04 18:42:00,
2013-08-04 13:52:00,75.7,58.9,30.09,East,96,0.0,0.0,56,0.00,CLR,,0.03,WeatherDisplay:10.37,2013-08-04 18:52:00,
2013-08-04 14:02:00,75.9,58.6,30.09,SE,135,0.0,0.0,55,0.00,CLR,,0.03,WeatherDisplay:10.37,2013-08-04 19:02:00,
2013-08-04 14:07:00,75.7,58.4,30.09,ESE,115,3.0,5.0,55,0.00,CLR,,0.03,WeatherDisplay:10.37,2013-08-04 19:07:00,
2013-08-04 14:12:00,76.1,59.3,30.09,SSE,164,2.0,3.0,56,0.00,CLR,,0.03,WeatherDisplay:10.37,2013-08-04 19:12:00,
2013-08-04 14:17:00,76.3,58.9,30.09,SSE,154,3.0,7.0,55,0.00,CLR,,0.03,WeatherDisplay:10.37,2013-08-04 19:17:00,
2013-08-04 14:22:00,76.3,58.4,30.09,ESE,122,0.0,2.0,54,0.00,CLR,,0.03,WeatherDisplay:10.37,2013-08-04 19:22:00,
2013-08-04 14:27:00,76.1,58.8,30.09,ESE,120,1.0,6.0,55,0.00,CLR,,0.03,WeatherDisplay:10.37,2013-08-04 19:27:00,
2013-08-04 14:37:00,77.5,58.5,30.09,ESE,119,2.0,4.0,52,0.00,CLR,,0.03,WeatherDisplay:10.37,2013-08-04 19:37:00,
2013-08-04 14:42:00,77.0,59.1,30.08,East,98,5.0,5.0,54,0.00,CLR,,0.03,WeatherDisplay:10.37,2013-08-04 19:42:00,
2013-08-04 14:47:00,76.8,58.4,30.08,ESE,105,0.0,5.0,53,0.00,CLR,,0.03,WeatherDisplay:10.37,2013-08-04 19:47:00,
2013-08-04 14:57:00,77.5,58.5,30.08,SE,136,2.0,8.0,52,0.00,CLR,,0.03,WeatherDisplay:10.37,2013-08-04 19:57:00,
2013-08-04 15:02:00,76.8,58.4,30.08,East,83,0.0,8.0,53,0.00,CLR,,0.03,WeatherDisplay:10.37,2013-08-04 20:02:00,
2013-08-04 15:07:00,76.7,58.8,30.08,East,85,0.0,2.0,54,0.00,CLR,,0.03,WeatherDisplay:10.37,2013-08-04 20:07:00,
2013-08-04 15:12:00,77.2,58.7,30.08,SE,135,1.0,5.0,53,0.00,CLR,,0.03,WeatherDisplay:10.37,2013-08-04 20:12:00,
2013-08-04 15:21:00,75.7,57.4,30.08,ESE,102,0.0,6.0,53,0.00,CLR,,0.03,WeatherDisplay:10.37,2013-08-04 20:21:00,
2013-08-04 15:32:00,75.6,57.7,30.07,ESE,111,1.0,6.0,54,0.00,CLR,,0.03,WeatherDisplay:10.37,2013-08-04 20:32:00,
2013-08-04 15:37:00,75.5,57.7,30.07,ESE,106,5.0,5.0,54,0.00,CLR,,0.03,WeatherDisplay:10.37,2013-08-04 20:37:00,
2013-08-04 15:41:00,75.4,57.6,30.07,East,99,2.0,4.0,54,0.00,CLR,,0.03,WeatherDisplay:10.37,2013-08-04 20:41:00,
2013-08-04 15:47:00,75.6,58.3,30.06,East,94,0.0,4.0,55,0.00,CLR,,0.03,WeatherDisplay:10.37,2013-08-04 20:47:00,
2013-08-04 15:57:00,75.9,58.5,30.06,SE,125,1.0,7.0,55,0.00,CLR,,0.03,WeatherDisplay:10.37,2013-08-04 20:57:00,
2013-08-04 16:02:00,76.5,59.1,30.06,East,89,0.0,7.0,55,0.00,CLR,,0.03,WeatherDisplay:10.37,2013-08-04 21:02:00,
2013-08-04 16:07:00,76.1,58.2,30.06,ESE,116,10.0,10.0,54,0.00,CLR,,0.03,WeatherDisplay:10.37,2013-08-04 21:07:00,
2013-08-04 16:12:00,75.4,57.6,30.06,SE,126,5.0,6.0,54,0.00,CLR,,0.03,WeatherDisplay:10.37,2013-08-04 21:12:00,
2013-08-04 16:21:00,74.8,57.6,30.06,East,101,0.0,3.0,55,0.00,CLR,,0.03,WeatherDisplay:10.37,2013-08-04 21:21:00,
2013-08-04 16:27:00,74.8,57.6,30.05,East,93,1.0,2.0,55,0.00,CLR,,0.03,WeatherDisplay:10.37,2013-08-04 21:27:00,
2013-08-04 16:32:00,74.8,57.6,30.05,ESE,108,1.0,4.0,55,0.00,CLR,,0.03,WeatherDisplay:10.37,2013-08-04 21:32:00,
2013-08-04 16:37:00,75.4,58.6,30.05,SE,140,6.0,6.0,56,0.00,CLR,,0.03,WeatherDisplay:10.37,2013-08-04 21:37:00,
2013-08-04 16:42:00,75.1,57.8,30.04,ESE,113,1.0,5.0,55,0.00,CLR,,0.03,WeatherDisplay:10.37,2013-08-04 21:42:00,
2013-08-04 16:47:00,74.8,57.6,30.04,ESE,108,1.0,7.0,55,0.00,CLR,,0.03,WeatherDisplay:10.37,2013-08-04 21:47:00,
2013-08-04 16:57:00,74.6,57.4,30.04,ESE,116,1.0,5.0,55,0.00,CLR,,0.03,WeatherDisplay:10.37,2013-08-04 21:57:00,
2013-08-04 17:07:00,74.6,57.9,30.04,ESE,102,2.0,3.0,56,0.00,CLR,,0.03,WeatherDisplay:10.37,2013-08-04 22:07:00,
2013-08-04 17:12:00,74.2,57.0,30.05,East,99,1.0,2.0,55,0.00,CLR,,0.03,WeatherDisplay:10.37,2013-08-04 22:12:00,
2013-08-04 17:17:00,74.1,57.4,30.04,East,90,2.0,2.0,56,0.00,CLR,,0.03,WeatherDisplay:10.37,2013-08-04 22:17:00,
2013-08-04 17:27:00,74.1,57.4,30.04,East,97,2.0,4.0,56,0.00,CLR,,0.03,WeatherDisplay:10.37,2013-08-04 22:27:00,
2013-08-04 17:31:00,74.3,57.6,30.04,ESE,102,5.0,5.0,56,0.00,CLR,,0.03,WeatherDisplay:10.37,2013-08-04 22:31:00,
2013-08-04 17:37:00,74.1,57.4,30.03,ESE,117,2.0,6.0,56,0.00,CLR,,0.03,WeatherDisplay:10.37,2013-08-04 22:37:00,
2013-08-04 17:42:00,73.6,57.4,30.03,ESE,105,2.0,7.0,57,0.00,CLR,,0.03,WeatherDisplay:10.37,2013-08-04 22:42:00,
2013-08-04 17:46:00,73.2,57.1,30.02,East,87,0.0,7.0,57,0.00,CLR,,0.03,WeatherDisplay:10.37,2013-08-04 22:46:00,
2013-08-04 17:52:00,73.0,57.4,30.02,East,85,1.0,2.0,58,0.00,CLR,,0.03,WeatherDisplay:10.37,2013-08-04 22:52:00,
2013-08-04 17:57:00,72.7,57.5,30.02,East,96,2.0,7.0,59,0.00,CLR,,0.03,WeatherDisplay:10.37,2013-08-04 22:57:00,
2013-08-04 18:07:00,71.9,57.7,30.02,East,80,0.0,4.0,61,0.00,CLR,,0.03,WeatherDisplay:10.37,2013-08-04 23:07:00,
2013-08-04 18:12:00,71.6,57.5,30.01,ENE,68,1.0,3.0,61,0.00,CLR,,0.03,WeatherDisplay:10.37,2013-08-04 23:12:00,
2013-08-04 18:17:00,71.4,57.3,30.01,ESE,113,0.0,3.0,61,0.00,CLR,,0.03,WeatherDisplay:10.37,2013-08-04 23:17:00,
2013-08-04 18:22:00,71.2,57.1,30.02,ESE,117,0.0,0.0,61,0.00,CLR,,0.03,WeatherDisplay:10.37,2013-08-04 23:22:00,
2013-08-04 18:27:00,71.2,57.5,30.02,ESE,111,0.0,0.0,62,0.00,CLR,,0.03,WeatherDisplay:10.37,2013-08-04 23:27:00,
2013-08-04 18:32:00,70.7,58.4,30.02,ESE,114,2.0,2.0,65,0.00,CLR,,0.03,WeatherDisplay:10.37,2013-08-04 23:32:00,
2013-08-04 18:37:00,69.8,58.3,30.02,ESE,109,2.0,2.0,67,0.00,CLR,,0.03,WeatherDisplay:10.37,2013-08-04 23:37:00,
2013-08-04 18:42:00,68.7,58.6,30.01,ESE,112,3.0,7.0,70,0.00,CLR,,0.03,WeatherDisplay:10.37,2013-08-04 23:42:00,
2013-08-04 18:47:00,68.2,58.8,30.01,ESE,112,0.0,0.0,72,0.00,CLR,,0.03,WeatherDisplay:10.37,2013-08-04 23:47:00,
2013-08-04 18:57:00,67.3,58.8,30.02,East,98,1.0,2.0,74,0.00,CLR,,0.03,WeatherDisplay:10.37,2013-08-04 23:57:00,
2013-08-04 19:02:00,67.3,58.7,30.02,East,90,0.0,2.0,74,0.00,CLR,,0.03,WeatherDisplay:10.37,2013-08-05 00:02:00,
2013-08-04 19:06:00,66.9,58.7,30.01,ESE,110,0.0,0.0,75,0.00,CLR,,0.03,WeatherDisplay:10.37,2013-08-05 00:06:00,
2013-08-04 19:16:00,66.4,58.6,30.01,ESE,114,0.0,2.0,76,0.00,CLR,,0.03,WeatherDisplay:10.37,2013-08-05 00:16:00,
2013-08-04 19:22:00,66.3,58.9,30.02,East,100,0.0,2.0,77,0.00,CLR,,0.03,WeatherDisplay:10.37,2013-08-05 00:22:00,
2013-08-04 19:32:00,66.0,59.3,30.02,NE,53,0.0,0.0,79,0.00,CLR,,0.03,WeatherDisplay:10.37,2013-08-05 00:32:00,
2013-08-04 19:36:00,66.0,59.3,30.01,NE,45,0.0,0.0,79,0.03,RA,,0.06,WeatherDisplay:10.37,2013-08-05 00:36:00,
2013-08-04 19:46:00,66.0,59.7,30.00,NE,53,0.0,6.0,80,0.00,,,0.06,WeatherDisplay:10.37,2013-08-05 00:46:00,
2013-08-04 19:52:00,66.0,59.7,30.00,ENE,60,0.0,0.0,80,0.00,CLR,,0.06,WeatherDisplay:10.37,2013-08-05 00:52:00,
2013-08-04 20:02:00,66.0,59.3,30.00,ENE,77,0.0,0.0,79,0.00,CLR,,0.06,WeatherDisplay:10.37,2013-08-05 01:02:00,
2013-08-04 20:07:00,66.0,59.7,30.00,ENE,75,3.0,4.0,80,0.00,CLR,,0.06,WeatherDisplay:10.37,2013-08-05 01:07:00,
2013-08-04 20:17:00,66.0,59.3,29.99,ENE,75,0.0,0.0,79,0.00,CLR,,0.06,WeatherDisplay:10.37,2013-08-05 01:17:00,
2013-08-04 20:27:00,65.8,59.5,29.99,East,85,0.0,0.0,80,0.00,CLR,,0.06,WeatherDisplay:10.37,2013-08-05 01:27:00,
2013-08-04 20:32:00,65.8,59.5,29.99,East,85,0.0,0.0,80,0.00,CLR,,0.06,WeatherDisplay:10.37,2013-08-05 01:32:00,
2013-08-04 20:37:00,65.8,59.5,30.00,East,84,0.0,0.0,80,0.00,CLR,,0.06,WeatherDisplay:10.37,2013-08-05 01:37:00,
2013-08-04 20:42:00,65.7,59.3,29.99,ENE,76,0.0,0.0,80,0.00,CLR,,0.06,WeatherDisplay:10.37,2013-08-05 01:42:00,
2013-08-04 20:47:00,65.7,59.3,29.99,NE,55,3.0,4.0,80,0.00,CLR,,0.06,WeatherDisplay:10.37,2013-08-05 01:47:00,
2013-08-04 20:57:00,65.5,59.5,29.99,ENE,57,1.0,2.0,81,0.00,CLR,,0.06,WeatherDisplay:10.37,2013-08-05 01:57:00,
2013-08-04 21:02:00,65.5,59.5,29.99,ENE,57,3.0,3.0,81,0.00,CLR,,0.06,WeatherDisplay:10.37,2013-08-05 02:02:00,
2013-08-04 21:11:00,65.5,59.8,29.99,East,90,0.0,0.0,82,0.00,CLR,,0.06,WeatherDisplay:10.37,2013-08-05 02:11:00,
2013-08-04 21:17:00,65.3,59.7,29.98,East,96,0.0,0.0,82,0.00,CLR,,0.06,WeatherDisplay:10.37,2013-08-05 02:17:00,
2013-08-04 21:27:00,65.1,59.1,29.98,ESE,104,2.0,2.0,81,0.00,CLR,,0.06,WeatherDisplay:10.37,2013-08-05 02:27:00,
2013-08-04 21:37:00,65.3,59.4,29.99,ESE,104,0.0,6.0,81,0.00,CLR,,0.06,WeatherDisplay:10.37,2013-08-05 02:37:00,
2013-08-04 21:41:00,65.5,59.5,29.99,East,98,0.0,0.0,81,0.00,CLR,,0.06,WeatherDisplay:10.37,2013-08-05 02:41:00,
2013-08-04 21:52:00,65.5,59.5,29.99,ESE,111,0.0,0.0,81,0.00,CLR,,0.06,WeatherDisplay:10.37,2013-08-05 02:52:00,
2013-08-04 21:57:00,65.5,59.5,29.99,ESE,102,1.0,4.0,81,0.00,CLR,,0.06,WeatherDisplay:10.37,2013-08-05 02:57:00,
2013-08-04 22:02:00,65.3,59.3,29.98,East,80,0.0,4.0,81,0.00,CLR,,0.06,WeatherDisplay:10.37,2013-08-05 03:02:00,
2013-08-04 22:12:00,65.5,59.8,29.98,ESE,109,0.0,0.0,82,0.00,CLR,,0.06,WeatherDisplay:10.37,2013-08-05 03:12:00,
2013-08-04 22:22:00,65.5,59.8,29.98,ESE,119,0.0,2.0,82,0.00,CLR,,0.06,WeatherDisplay:10.37,2013-08-05 03:22:00,
2013-08-04 22:27:00,65.7,60.0,29.98,SE,135,0.0,0.0,82,0.00,CLR,,0.06,WeatherDisplay:10.37,2013-08-05 03:27:00,
2013-08-04 22:36:00,65.6,59.9,29.97,SE,135,0.0,0.0,82,0.00,CLR,,0.06,WeatherDisplay:10.37,2013-08-05 03:36:00,
2013-08-04 22:47:00,65.7,60.4,29.99,SE,135,0.0,0.0,83,0.00,CLR,,0.06,WeatherDisplay:10.37,2013-08-05 03:47:00,
2013-08-04 22:52:00,65.5,60.2,29.98,SE,135,0.0,0.0,83,0.00,CLR,,0.06,WeatherDisplay:10.37,2013-08-05 03:52:00,
2013-08-04 23:02:00,65.5,60.2,29.97,East,98,0.0,0.0,83,0.00,CLR,,0.06,WeatherDisplay:10.37,2013-08-05 04:02:00,
2013-08-04 23:07:00,65.6,60.6,29.96,East,90,0.0,0.0,84,0.00,CLR,,0.06,WeatherDisplay:10.37,2013-08-05 04:07:00,
2013-08-04 23:12:00,65.5,60.5,29.96,East,90,0.0,0.0,84,0.00,CLR,,0.06,WeatherDisplay:10.37,2013-08-05 04:12:00,
2013-08-04 23:22:00,65.5,60.5,29.96,East,100,0.0,0.0,84,0.00,CLR,,0.06,WeatherDisplay:10.37,2013-08-05 04:22:00,
2013-08-04 23:27:00,65.1,60.5,29.97,South,187,0.0,0.0,85,0.00,CLR,,0.06,WeatherDisplay:10.37,2013-08-05 04:27:00,
2013-08-04 23:31:00,64.8,60.1,29.97,SW,233,0.0,0.0,85,0.00,CLR,,0.06,WeatherDisplay:10.37,2013-08-05 04:31:00,
2013-08-04 23:36:00,64.6,60.3,29.96,SW,223,0.0,0.0,86,0.00,CLR,,0.06,WeatherDisplay:10.37,2013-08-05 04:36:00,
2013-08-04 23:42:00,64.3,60.0,29.96,SSE,153,0.0,0.0,86,0.00,CLR,,0.06,WeatherDisplay:10.37,2013-08-05 04:42:00,
2013-08-04 23:47:00,64.2,59.9,29.96,ESE,120,0.0,0.0,86,0.00,CLR,,0.06,WeatherDisplay:10.37,2013-08-05 04:47:00,
2013-08-04 23:52:00,64.2,59.9,29.95,ESE,109,0.0,0.0,86,0.00,CLR,,0.06,WeatherDisplay:10.37,2013-08-05 04:52:00,
2013-08-04 23:57:00,64.2,59.9,29.95,East,93,0.0,0.0,86,0.00,CLR,,0.06,WeatherDisplay:10.37,2013-08-05 04:57:00,